date,time,DOY,Ta_1_1_1,RH_1_1_1,LWin_1_1_1,LWout_1_1_1,SWin_1_1_1,SWout_1_1_1,PPFD_1_1_1,SWC_1_1_1,Ts_1_1_1
[yyyy-mm-dd],[HH:MM],[ddd.ddd],[K],[%],[W+1m-2],[W+1m-2],[W+1m-2],[W+1m-2],[µmol+1m-2s-1],[m+3m-3],[K]
2012-05-03,00:30,124.020,290.57600000000008,58.430000000000000,-9999.0,-9999.0,-0.21733333333333330,-3.5489999999999999,1.03333333333333333E-002,0.28000000000000014,285.80500000000001
2012-05-03,01:00,124.041,290.24766666666676,59.423666666666669,-9999.0,-9999.0,-0.21966666666666673,-3.2733333333333330,4.66666666666666705E-003,0.28000000000000014,285.54333333333341
2012-05-03,01:30,124.062,290.58799999999997,57.327999999999996,-9999.0,-9999.0,0.12800000000000000,-3.1653333333333324,6.33333333333333404E-003,0.28000000000000014,285.31133333333344
2012-05-03,02:00,124.083,290.55900000000003,57.024333333333338,-9999.0,-9999.0,-0.24566666666666662,-3.1553333333333340,1.59999999999999969E-002,0.28000000000000014,285.10300000000012
2012-05-03,02:30,124.104,289.83333333333337,60.038333333333334,-9999.0,-9999.0,-0.54966666666666675,-3.3219999999999996,1.03333333333333350E-002,0.28000000000000014,284.92399999999998
2012-05-03,03:00,124.124,289.76966666666664,59.643666666666654,-9999.0,-9999.0,-8.00000000000000017E-003,-3.3193333333333337,3.66666666666666616E-003,0.28000000000000014,284.76566666666673
2012-05-03,03:30,124.145,289.82466666666670,58.897666666666630,-9999.0,-9999.0,0.22566666666666671,-3.4813333333333327,3.66666666666666616E-003,0.28000000000000014,284.60400000000010
2012-05-03,04:00,124.166,289.65900000000005,59.931333333333342,-9999.0,-9999.0,-0.39700000000000013,-2.6076666666666655,1.00000000000000002E-003,0.28000000000000014,284.43666666666667
2012-05-03,04:30,124.187,289.01066666666651,64.269333333333321,-9999.0,-9999.0,-0.70366666666666666,-2.0693333333333337,1.26666666666666664E-002,0.28000000000000014,284.33333333333331
2012-05-03,05:00,124.208,289.38700000000000,69.397333333333336,-9999.0,-9999.0,5.03333333333333480E-002,-2.3860000000000001,2.33333333333333179E-003,0.28000000000000014,284.30133333333339
2012-05-03,05:30,124.229,289.34800000000007,76.345333333333343,-9999.0,-9999.0,-0.28000000000000008,-2.3550000000000009,3.33333333333333593E-004,0.28000000000000014,284.24433333333326
2012-05-03,06:00,124.249,288.93033333333335,85.292999999999992,-9.9050000000000011,-9999.0,-0.35666666666666674,-2.2993333333333337,6.66666666666666623E-003,0.28000000000000014,284.23733333333337
2012-05-03,06:30,124.270,288.75599999999997,89.599666666666664,-9999.0,-9999.0,-0.20400000000000001,-2.1596666666666668,0.18166666666666667,0.28000000000000014,284.30633333333333
2012-05-03,07:00,124.291,288.73433333333344,92.105333333333334,-9.7136363636363630,-9999.0,-3.40000000000000024E-002,-0.24966666666666695,3.6719999999999997,0.28000000000000014,284.34700000000004
2012-05-03,07:30,124.312,288.86033333333336,93.020666666666642,-9.0980000000000008,-9999.0,0.11233333333333331,0.78700000000000025,5.4499999999999984,0.28000000000000014,284.40433333333334
2012-05-03,08:00,124.333,288.73100000000005,95.214999999999989,-7.3823333333333334,-7.5478571428571408,0.10766666666666666,-0.61766666666666692,2.6493333333333338,0.28000000000000014,284.53400000000005
2012-05-03,08:30,124.354,287.12033333333335,95.788333333333355,-4.6550000000000002,-9.6050000000000004,0.54233333333333333,1.0189999999999999,6.5786666666666660,0.28233333333333344,284.76633333333336
2012-05-03,09:00,124.374,286.22833333333335,97.352666666666664,-4.6693333333333351,-9999.0,2.4253333333333336,19.643666666666665,49.881666666666668,0.30699999999999988,284.97299999999996
2012-05-03,09:30,124.395,286.38766666666675,97.345333333333329,-5.1940000000000008,-9999.0,13.656000000000001,134.86533333333335,290.15099999999995,0.31766666666666676,284.97899999999993
2012-05-03,10:00,124.416,286.88533333333345,96.510333333333321,-5.6623333333333346,-9999.0,39.951000000000008,378.64533333333327,781.87566666666646,0.32000000000000012,285.07000000000005
2012-05-03,10:30,124.437,287.74566666666669,94.472666666666640,-6.6446666666666641,-9999.0,40.672666666666672,383.65166666666664,807.96366666666654,0.32000000000000012,285.37133333333338
2012-05-03,11:00,124.458,288.23733333333337,93.102333333333348,-6.3443333333333358,-9999.0,34.662333333333329,334.78833333333347,704.83566666666673,0.32000000000000012,285.77133333333330
2012-05-03,11:30,124.479,288.92900000000003,89.719000000000008,-6.0930000000000009,-9999.0,35.534999999999997,339.48199999999997,713.87366666666651,0.32000000000000012,286.23066666666665
2012-05-03,12:00,124.499,289.73866666666675,86.229333333333344,-5.5573333333333350,-9999.0,41.634666666666675,384.84166666666664,815.44133333333343,0.32000000000000012,286.71699999999993
2012-05-03,12:30,124.520,290.21733333333333,84.357666666666674,-5.6846666666666676,-9999.0,40.403333333333336,369.63099999999997,781.41599999999994,0.32000000000000012,287.20100000000008
2012-05-03,13:00,124.541,290.93433333333337,80.707333333333338,-3.9953333333333343,-9999.0,61.930000000000000,553.88599999999997,1160.4059999999999,0.32000000000000012,287.67366666666669
2012-05-03,13:30,124.562,291.65533333333337,76.107333333333344,-5.8519999999999994,-9999.0,48.952000000000005,438.74799999999999,916.85866666666641,0.32000000000000012,288.46333333333331
2012-05-03,14:00,124.583,292.06133333333338,74.471333333333348,-6.1493333333333329,-9999.0,49.533666666666669,437.41700000000003,915.25899999999990,0.32000000000000012,288.85400000000004
2012-05-03,14:30,124.604,293.11099999999999,70.065333333333356,-4.9379999999999997,-9999.0,67.046333333333351,602.54800000000012,1254.1886666666662,0.32000000000000012,289.19166666666672
2012-05-03,15:00,124.624,293.01000000000010,69.310333333333347,-6.1253333333333320,-9999.0,40.027000000000001,365.69633333333337,775.44400000000007,0.32000000000000012,289.84799999999996
2012-05-03,15:30,124.645,293.21233333333333,69.689999999999998,-7.4239999999999986,-9999.0,36.626000000000005,331.71900000000005,707.20399999999995,0.32000000000000012,289.85599999999999
2012-05-03,16:00,124.666,293.63833333333343,67.241666666666660,-4.9386666666666663,-9999.0,60.466666666666661,535.25666666666666,1106.8456666666666,0.31933333333333341,289.80933333333337
2012-05-03,16:30,124.687,293.90833333333336,61.647000000000006,-6.4892592592592599,-9999.0,53.372333333333344,485.85699999999991,998.31033333333346,0.31133333333333330,290.15533333333343
2012-05-03,17:00,124.708,291.55233333333331,70.436999999999998,-3.4426666666666663,-9999.0,62.356666666666676,552.21233333333328,1131.6859999999999,0.30999999999999989,290.34900000000005
2012-05-03,17:30,124.729,291.25400000000002,69.966666666666669,-5.0643333333333329,-9999.0,54.450333333333340,484.39766666666662,989.61233333333337,0.30999999999999989,290.55533333333341
2012-05-03,18:00,124.749,290.58933333333334,69.896666666666690,-5.1023333333333332,-9999.0,52.466000000000001,458.94633333333337,913.93266666666671,0.30999999999999989,290.58866666666665
2012-05-03,18:30,124.770,290.29200000000003,67.860333333333344,-5.5606666666666653,-9999.0,43.782333333333334,374.65433333333334,738.55266666666682,0.30999999999999989,290.34100000000012
2012-05-03,19:00,124.791,289.43366666666668,70.091333333333324,-7.5237499999999988,-9999.0,32.413333333333341,274.56000000000000,540.90499999999997,0.30999999999999989,289.91833333333329
2012-05-03,19:30,124.812,288.47933333333327,74.629999999999981,-5.3719999999999999,-9999.0,32.378666666666668,249.07499999999999,462.40099999999990,0.30999999999999989,289.28300000000002
2012-05-03,20:00,124.833,287.76366666666667,76.832333333333338,-8.6866666666666656,-9999.0,29.195666666666675,215.99566666666666,380.10100000000000,0.30999999999999989,288.74666666666673
2012-05-03,20:30,124.854,285.15500000000003,87.087333333333319,-5.6843333333333330,-9999.0,9.5949999999999953,77.635333333333321,145.26433333333335,0.30999999999999989,288.16700000000003
2012-05-03,21:00,124.874,283.38266666666669,94.720666666666659,-3.6266666666666665,-9.4871428571428584,1.5946666666666665,16.520666666666667,34.716333333333338,0.30999999999999989,287.53066666666666
2012-05-03,21:30,124.895,282.42500000000007,97.201333333333366,-3.4849999999999999,-8.3212500000000009,-0.12600000000000000,1.8413333333333328,4.9613333333333323,0.30999999999999989,286.93333333333339
2012-05-03,22:00,124.916,281.91333333333336,98.802333333333323,-3.4999999999999996,-7.0973333333333342,-0.38100000000000006,-0.44033333333333341,9.99999999999999917E-002,0.30999999999999989,286.38333333333333
2012-05-03,22:30,124.937,281.73233333333343,99.505999999999986,-3.6876666666666669,-6.6063333333333327,-0.29966666666666669,-0.34100000000000003,1.53333333333333360E-002,0.30999999999999989,285.91366666666670
2012-05-03,23:00,124.958,281.46700000000004,99.789333333333317,-3.3770000000000007,-6.0520000000000014,-0.24833333333333332,-0.26633333333333337,9.33333333333333237E-003,0.30999999999999989,285.53200000000004
2012-05-03,23:30,124.979,280.93900000000002,99.937999999999960,-3.4550000000000001,-6.1279999999999992,-0.28433333333333333,-0.28166666666666662,2.00000000000000091E-003,0.30999999999999989,285.19433333333330
2012-05-04,00:00,125.000,280.71666666666664,99.996666666666670,-3.8696666666666677,-6.0589999999999984,-0.19033333333333335,-0.24000000000000002,8.33333333333333322E-003,0.30999999999999989,284.87366666666668
